Aeroporto :
LOGIN :

Iscrizione | Disclaimer

   EN    FR    IT 

 










Sommario :    VFR   VFR Marginale   IFR   IFR Intensivo   IFR Molto Intensivo
Visibilità : 
Base nubi : 
>= 8 km
>= 3000ft
5 / 8 km
1000 / 3000 ft
1500m / 5 km
500 / 1000 ft
800 / 1500m
200 / 500 ft
< 800m
< 200 ft
Simboli :   Temporali  Nebbia  Neve Forte  Precipitazioni Forti  Vento > 20 kt
SIGMETs :   Varie  Temporali  Ghiacco  Turbolenza  Onda orograficha  Ceneri Vulcaniche






- Altitudine del aeroporto : 200 ft


EBBL - Klein Brogel AB

ULTIMO METAR :
  • 172255Z AUTO 03005KT 9999 FEW072/// 22/18 Q1013 BLU

METARs OBSOLETI :
  • 172225Z AUTO 02004KT 9999 FEW075/// 23/18 Q1013 BLU
  • 172155Z AUTO 01004KT 9999 NCD 23/18 Q1013 BLU
  • 172125Z AUTO 02003KT 9999 NCD 24/18 Q1013 BLU
  • 172055Z AUTO 35003KT 9999 NCD 24/18 Q1012 BLU
  • 172025Z AUTO VRB02KT 9999 NCD 24/18 Q1013 BLU

Previsioni scadute.



MetMap, La meteo Aeronautica in un colpo d'occhio ! - Copyright ORBIFLY Dicembre 2007 - Disclaimer

ORBIFLY MET'MAP TEAM :

Programmazione e sviluppo : Alexandra Zaïnal
Concezione : Baudouin d'Aumeries
Aiuto per la programmazione : Marc-Olivier Méhu
Supporto tecnico e logistico : Manuel Goepfert
Aiuto per la traduzione : Arnaldo La Scala

Contatto : metmap@orbifly.com




FONTI E CREDITI :

   NOAA